DW2229 Gulf Shores AL US current weather conditions

sailwx.info

Wind from 130 at 4 knots gusting 7

Air temperature 16.7° C
Dewpoint 9.8° C

Last reported at 2020-Jan-28 22:03 UTC.
Time now 2020-Jan-28 22:57 UTC

Location: N 30°15' W 087°43'.
View on Google Maps.

See reports from other nearby stations

  
Tides and Currents Weather Stations Pressure Air Temp Water Temp Dewpoint Dewpoint Depression Visibility Wind Speed Wind Dir Waves Ship Positions
date/time (UTC)wind fromknots sea level pressurealtimeterstation pressurevisibilityair tempwater tempwave heightnotes
2020-Jan-28 22:03 130 4 gusting 7 16.7
2020-Jan-28 21:53 083 3 gusting 6 16.7
2020-Jan-28 21:43 128 6 gusting 7 17.2
2020-Jan-28 21:33 138 5 gusting 7 17.2
2020-Jan-28 21:23 105 1 gusting 4 17.2
2020-Jan-28 21:13 099 0 gusting 4 17.2
2020-Jan-28 21:03 096 3 gusting 8 17.2
2020-Jan-28 20:53 112 1 gusting 6 17.2
2020-Jan-28 20:43 103 1 gusting 6 17.2
2020-Jan-28 20:33 069 3 gusting 6 17.2
2020-Jan-28 20:23 096 2 gusting 6 17.2
2020-Jan-28 20:13 117 2 gusting 8 17.2
2020-Jan-28 20:03 085 3 gusting 8 16.7
2020-Jan-28 19:53 090 3 gusting 6 16.7
2020-Jan-28 19:43 101 2 gusting 6 16.7
2020-Jan-28 19:33 111 2 gusting 7 16.7
2020-Jan-28 19:23 063 3 gusting 6 16.7
2020-Jan-28 19:13 080 4 gusting 10 16.7
2020-Jan-28 19:03 115 6 gusting 10 16.1
2020-Jan-28 18:53 059 3 gusting 8 16.1
2020-Jan-28 18:43 082 2 gusting 9 15.6
2020-Jan-28 18:33 092 4 gusting 8 15.6
2020-Jan-28 18:23 074 3 gusting 8 15.6
2020-Jan-28 18:13 101 3 gusting 8 15.6
2020-Jan-28 18:03 100 5 gusting 9 15.6
2020-Jan-28 17:53 094 6 gusting 10 15.6
2020-Jan-28 17:43 095 6 gusting 10 15.0
2020-Jan-28 17:33 067 5 gusting 11 15.0
2020-Jan-28 17:23 096 6 gusting 10 15.0
2020-Jan-28 17:13 101 6 gusting 10 15.0
2020-Jan-28 17:03 082 6 gusting 10 15.0
2020-Jan-28 16:53 109 7 gusting 12 15.0
2020-Jan-28 16:43 095 6 gusting 14 15.0
2020-Jan-28 16:33 105 7 gusting 13 15.0
2020-Jan-28 16:23 102 7 gusting 11 15.0
2020-Jan-28 16:13 106 5 gusting 9 15.0
2020-Jan-28 16:03 079 4 gusting 9 14.4
2020-Jan-28 15:53 069 5 gusting 9 13.9
2020-Jan-28 15:43 037 3 gusting 8 13.3
2020-Jan-28 15:33 066 5 gusting 7 13.3
2020-Jan-28 15:23 054 2 gusting 6 12.8
2020-Jan-28 15:13 070 5 gusting 7 12.2
2020-Jan-28 15:03 035 3 gusting 7 12.2
2020-Jan-28 14:53 035 4 gusting 8 11.7
2020-Jan-28 14:43 058 2 gusting 7 11.1
2020-Jan-28 14:33 063 3 gusting 6 10.6
2020-Jan-28 14:23 038 4 gusting 8 10.0
2020-Jan-28 14:13 055 1 gusting 6 10.0
2020-Jan-28 14:03 038 3 gusting 6 9.4
2020-Jan-28 13:53 034 3 gusting 5 9.4
2020-Jan-28 13:43 066 2 gusting 6 8.9
2020-Jan-28 13:33 048 2 gusting 5 8.3
2020-Jan-28 13:23 045 1 gusting 4 8.3
2020-Jan-28 13:13 042 2 gusting 5 8.3
2020-Jan-28 13:03 047 1 gusting 4 7.8
2020-Jan-28 12:53 046 2 gusting 4 7.8
2020-Jan-28 12:43 046 2 gusting 5 7.8
2020-Jan-28 12:33 044 2 gusting 4 7.8
2020-Jan-28 12:23 048 2 gusting 4 7.8
2020-Jan-28 12:13 046 2 gusting 3 7.8
2020-Jan-28 12:03 046 2 gusting 4 8.3
2020-Jan-28 11:53 044 2 gusting 5 8.3
2020-Jan-28 11:43 046 1 gusting 3 8.3
2020-Jan-28 11:33 049 8.3
2020-Jan-28 11:23 049 1 gusting 5 8.3
2020-Jan-28 11:13 042 2 gusting 4 8.3
2020-Jan-28 11:03 040 8.3
2020-Jan-28 10:53 040 1 gusting 3 8.3
2020-Jan-28 10:43 040 1 gusting 2 8.9
2020-Jan-28 10:33 040 1 gusting 3 8.9
2020-Jan-28 10:23 040 0 gusting 3 8.9
2020-Jan-28 10:13 040 2 gusting 4 8.9
2020-Jan-28 10:03 047 8.9
2020-Jan-28 09:53 049 2 gusting 4 8.9
2020-Jan-28 09:43 041 1 gusting 3 8.9
2020-Jan-28 09:33 041 0 gusting 2 8.9
2020-Jan-28 09:23 040 1 gusting 4 8.9
2020-Jan-28 09:13 040 2 gusting 3 8.9
2020-Jan-28 09:03 040 8.9
2020-Jan-28 08:53 040 1 gusting 2 8.9
2020-Jan-28 08:43 040 1 gusting 4 8.9
2020-Jan-28 08:33 037 2 gusting 4 8.9
2020-Jan-28 08:23 037 2 gusting 5 8.9
2020-Jan-28 08:13 038 1 gusting 3 8.9
2020-Jan-28 08:03 038 1 gusting 2 8.9
2020-Jan-28 07:53 037 0 gusting 1 8.9
2020-Jan-28 07:43 037 8.9
2020-Jan-28 07:33 037 0 gusting 3 8.9
2020-Jan-28 07:23 036 0 gusting 4 9.4
2020-Jan-28 07:13 036 2 gusting 4 9.4
2020-Jan-28 07:03 034 1 gusting 4 9.4
2020-Jan-28 06:53 032 1 gusting 3 9.4
2020-Jan-28 06:43 032 0 gusting 2 9.4
2020-Jan-28 06:33 032 1 gusting 3 9.4
2020-Jan-28 06:23 032 3 gusting 5 9.4
2020-Jan-28 06:13 031 1 gusting 4 9.4
2020-Jan-28 06:03 032 2 gusting 3 10.0
2020-Jan-28 05:53 032 1 gusting 4 10.0
2020-Jan-28 05:43 015 1 gusting 4 10.0
2020-Jan-28 05:33 005 1 gusting 3 10.0
2020-Jan-28 05:23 005 0 gusting 4 10.0
2020-Jan-28 05:13 360 2 gusting 5 10.0
2020-Jan-28 05:03 360 2 gusting 6 10.0
2020-Jan-28 04:53 005 3 gusting 5 10.6
2020-Jan-28 04:43 360 3 gusting 5 10.6
2020-Jan-28 04:33 360 3 gusting 6 10.6
2020-Jan-28 04:23 355 3 gusting 5 10.6
2020-Jan-28 04:13 350 11.1
2020-Jan-28 04:03 342 3 gusting 5 11.1
2020-Jan-28 03:53 340 11.1
2020-Jan-28 03:43 340 0 gusting 4 11.1
2020-Jan-28 03:33 340 11.1
2020-Jan-28 03:23 340 11.7
2020-Jan-28 03:13 341 11.7
2020-Jan-28 03:03 345 0 gusting 2 11.1
2020-Jan-28 02:53 345 11.1
2020-Jan-28 02:43 345 11.1
2020-Jan-28 02:33 345 11.1
2020-Jan-28 02:23 345 11.7
2020-Jan-28 02:13 345 11.7
2020-Jan-28 02:03 345 11.7
2020-Jan-28 01:53 345 11.7
2020-Jan-28 01:43 345 11.7
2020-Jan-28 01:33 345 11.7
2020-Jan-28 01:23 345 12.2
2020-Jan-28 01:13 345 12.2
2020-Jan-28 01:03 345 12.2
2020-Jan-28 00:53 345 12.2
2020-Jan-28 00:43 345 1 gusting 5 12.8
2020-Jan-28 00:33 347 4 gusting 5 12.8
2020-Jan-28 00:23 355 2 gusting 4 12.8
2020-Jan-28 00:13 355 3 gusting 4 12.8
2020-Jan-28 00:03 351 3 gusting 6 13.3
2020-Jan-27 23:53 360 4 gusting 6 13.3
2020-Jan-27 23:43 005 4 gusting 7 13.3
2020-Jan-27 23:33 360 4 gusting 6 13.3
2020-Jan-27 23:23 011 2 gusting 6 13.9
2020-Jan-27 23:13 022 3 gusting 6 13.9
2020-Jan-27 23:03 028 4 gusting 6 13.9
2020-Jan-27 22:53 012 6 gusting 8 13.9
2020-Jan-27 22:43 355 13.9
2020-Jan-27 22:33 344 5 gusting 7 13.3
2020-Jan-27 22:23 355 5 gusting 8 13.3
2020-Jan-27 22:13 348 5 gusting 8 13.3
2020-Jan-27 22:03 342 6 gusting 11 13.3
2020-Jan-27 21:53 013 5 gusting 10 13.3
2020-Jan-27 21:43 351 5 gusting 8 13.3
2020-Jan-27 21:33 346 6 gusting 9 13.3
2020-Jan-27 21:23 020 7 gusting 12 13.3
2020-Jan-27 21:13 020 7 gusting 12 13.3
2020-Jan-27 21:03 010 7 gusting 11 13.9
2020-Jan-27 20:53 024 6 gusting 13 13.9
2020-Jan-27 20:43 346 7 gusting 13 14.4
2020-Jan-27 20:33 355 9 gusting 13 14.4
2020-Jan-27 20:23 338 9 gusting 12 15.0
2020-Jan-27 20:13 350 8 gusting 13 15.6
2020-Jan-27 20:03 011 7 gusting 13 15.6
2020-Jan-27 19:53 015 8 gusting 12 15.6
2020-Jan-27 19:43 355 6 gusting 12 15.6
2020-Jan-27 19:33 355 6 gusting 12 16.1
2020-Jan-27 19:23 336 6 gusting 10 16.1
2020-Jan-27 19:13 360 6 gusting 10 16.1
2020-Jan-27 19:03 025 7 gusting 11 16.1
2020-Jan-27 18:53 014 6 gusting 7 16.1
2020-Jan-27 18:43 331 3 gusting 9 16.1
2020-Jan-27 18:33 022 6 gusting 9 16.1
2020-Jan-27 18:23 344 7 gusting 10 16.1
2020-Jan-27 18:13 018 7 gusting 11 16.1
2020-Jan-27 18:03 350 7 gusting 9 16.1
2020-Jan-27 17:53 030 6 gusting 10 15.6
2020-Jan-27 17:43 005 6 gusting 9 15.6
2020-Jan-27 17:33 327 7 gusting 11 15.6
2020-Jan-27 17:23 013 7 gusting 11 15.6
2020-Jan-27 17:13 355 6 gusting 9 15.0
2020-Jan-27 17:03 010 6 gusting 10 15.0
2020-Jan-27 16:53 011 7 gusting 9 14.4
2020-Jan-27 16:43 019 6 gusting 10 14.4
2020-Jan-27 16:33 010 7 gusting 9 13.9
2020-Jan-27 16:23 013 7 gusting 12 13.3
2020-Jan-27 16:13 355 7 gusting 10 12.8
2020-Jan-27 16:03 014 7 gusting 10 12.8
2020-Jan-27 15:53 360 6 gusting 9 12.2
2020-Jan-27 15:43 355 6 gusting 8 12.2
2020-Jan-27 15:33 337 5 gusting 9 12.2
2020-Jan-27 15:23 017 5 gusting 8 11.7
2020-Jan-27 15:13 349 5 gusting 7 11.7
2020-Jan-27 15:03 017 2 gusting 6 11.1
2020-Jan-27 14:53 005 3 gusting 6 11.1
2020-Jan-27 14:43 022 2 gusting 7 11.1
2020-Jan-27 14:33 009 4 gusting 8 11.1
2020-Jan-27 14:23 360 6 gusting 10 10.6
2020-Jan-27 14:13 005 6 gusting 10 10.6
2020-Jan-27 14:03 360 6 gusting 10 10.6
2020-Jan-27 13:53 014 5 gusting 9 10.6
2020-Jan-27 13:43 360 6 gusting 10 10.6
2020-Jan-27 13:33 015 5 gusting 8 10.6
2020-Jan-27 13:23 034 5 gusting 7 10.6
2020-Jan-27 13:13 017 5 gusting 7 10.6
2020-Jan-27 13:03 026 3 gusting 7 10.6
2020-Jan-27 12:53 355 3 gusting 7 10.6
2020-Jan-27 12:43 005 3 gusting 6 10.6
2020-Jan-27 12:33 009 4 gusting 6 10.6
2020-Jan-27 12:23 345 4 gusting 7 10.6
2020-Jan-27 12:13 336 5 gusting 8 10.6
2020-Jan-27 12:03 355 6 gusting 7 10.6
2020-Jan-27 11:53 005 5 gusting 8 10.6
2020-Jan-27 11:43 017 3 gusting 7 10.6
2020-Jan-27 11:33 012 4 gusting 7 10.6
2020-Jan-27 11:23 005 6 gusting 8 10.6
2020-Jan-27 11:13 005 4 gusting 7 10.6
2020-Jan-27 11:03 019 5 gusting 7 10.6
2020-Jan-27 10:53 021 5 gusting 7 10.6
2020-Jan-27 10:43 055 2 gusting 6 10.6
2020-Jan-27 10:33 032 3 gusting 7 10.6
2020-Jan-27 10:23 030 5 gusting 8 10.6
2020-Jan-27 10:13 011 6 gusting 8 10.6
2020-Jan-27 10:03 021 6 gusting 8 10.6
2020-Jan-27 09:53 024 6 gusting 8 10.6
2020-Jan-27 09:43 022 6 gusting 9 10.6
2020-Jan-27 09:33 017 6 gusting 9 10.6
2020-Jan-27 09:23 023 5 gusting 7 10.6
2020-Jan-27 09:13 026 6 gusting 7 10.6
2020-Jan-27 09:03 019 5 gusting 9 10.6
2020-Jan-27 08:53 005 6 gusting 8 10.6
2020-Jan-27 08:43 014 6 gusting 8 10.6
2020-Jan-27 08:33 054 6 gusting 8 11.1
2020-Jan-27 08:23 025 6 gusting 8 11.1
2020-Jan-27 08:13 014 6 gusting 8 11.1
2020-Jan-27 08:03 020 5 gusting 7 11.1
2020-Jan-27 07:53 005 4 gusting 7 11.1
2020-Jan-27 07:43 018 5 gusting 7 11.1
2020-Jan-27 07:33 030 6 gusting 8 11.1
2020-Jan-27 07:23 022 6 gusting 8 11.1
2020-Jan-27 07:13 013 5 gusting 8 11.7
2020-Jan-27 07:03 048 5 gusting 7 11.7
2020-Jan-27 06:53 019 6 gusting 7 11.7
2020-Jan-27 06:43 032 5 gusting 7 11.7
2020-Jan-27 06:33 031 3 gusting 6 11.7
2020-Jan-27 06:23 032 3 gusting 6 11.7
2020-Jan-27 06:13 022 5 gusting 7 11.7
2020-Jan-27 06:03 028 3 gusting 7 11.7
2020-Jan-27 05:53 022 5 gusting 7 11.7
2020-Jan-27 05:43 023 5 gusting 7 11.7
2020-Jan-27 05:33 034 3 gusting 6 11.7
2020-Jan-27 05:23 031 1 gusting 5 11.7
2020-Jan-27 05:13 030 2 gusting 5 11.7
2020-Jan-27 05:03 034 2 gusting 6 11.7
2020-Jan-27 04:53 030 2 gusting 6 11.7
2020-Jan-27 04:43 025 3 gusting 6 11.7
2020-Jan-27 04:33 041 4 gusting 6 11.7
2020-Jan-27 04:23 036 3 gusting 6 11.7
2020-Jan-27 04:13 045 3 gusting 6 11.7
2020-Jan-27 04:03 046 1 gusting 5 12.2
2020-Jan-27 03:53 044 3 gusting 6 12.2
2020-Jan-27 03:43 034 3 gusting 5 12.2
2020-Jan-27 03:33 042 0 gusting 5 12.2
2020-Jan-27 03:23 045 0 gusting 5 12.2
2020-Jan-27 03:13 049 12.2
2020-Jan-27 03:03 046 12.2
2020-Jan-27 02:53 046 12.2
2020-Jan-27 02:43 045 0 gusting 4 12.2
2020-Jan-27 02:33 045 0 gusting 4 12.2
2020-Jan-27 02:23 049 0 gusting 4 12.8
2020-Jan-27 02:13 067 13.9
2020-Jan-27 02:03 126 3 gusting 8 15.6
2020-Jan-27 01:53 072 3 gusting 7 15.6
2020-Jan-27 01:43 126 5 gusting 11 15.6
2020-Jan-27 01:33 116 3 gusting 9 15.0
2020-Jan-27 01:23 134 5 gusting 9 15.0
2020-Jan-27 01:13 119 6 gusting 9 15.0
2020-Jan-27 01:03 128 7 gusting 12 15.0
2020-Jan-27 00:53 132 6 gusting 11 14.4
2020-Jan-27 00:43 140 7 gusting 13 14.4
2020-Jan-27 00:33 142 5 gusting 9 14.4
2020-Jan-27 00:23 117 6 gusting 11 13.9
2020-Jan-27 00:13 128 6 gusting 11 13.3
2020-Jan-27 00:03 080 1 gusting 4 12.8
2020-Jan-26 23:53 085 0 gusting 6 12.8
2020-Jan-26 23:43 086 3 gusting 6 12.8
2020-Jan-26 23:33 084 4 gusting 13 12.8
2020-Jan-26 23:23 156 10 gusting 19 12.2
2020-Jan-26 23:13 142 10 gusting 17 12.2
2020-Jan-26 23:03 136 9 gusting 15 12.2
2020-Jan-26 22:53 136 13 gusting 19 11.7
2020-Jan-26 22:43 102 6 gusting 12 11.7
2020-Jan-26 22:33 079 3 gusting 6 11.7
2020-Jan-26 22:23 090 2 gusting 8 11.7
2020-Jan-26 22:13 101 4 gusting 9 11.1
2020-Jan-26 22:03 128 6 gusting 10 11.1